Weather Roundup
Issued by NWS

Home | Current Version | Previous Version | Graphics & Text | Print | Product List | Glossary Off
Versions: 1 2 3 4 5 6 7 8 9 10 11 12 13 14 15 16 17 18 19 20 21 22 23 24 25 26 27 28 29 30 31 32 33 34 35 36 37 38 39 40 41 42 43 44 45 46 47 48 49 50

000
NZUS93 KARX 281710
HRRWXR

CURRENT HOURLY OBSERVATIONS ACROSS
MUCH OF THE UPPER MISSISSIPPI VALLEY
NATIONAL WEATHER SERVICE LA CROSSE WI
1100 AM CST SUN DEC 28 2014


...SOUTHEAST MINNESOTA...


CITY           SKY/WX    TMP DP  RH WIND       PRES   REMARKS
ROCHESTER      SUNNY     13   9  84 SW6       30.14S WCI   4
ROCHESTER/MAYO FAIR      19  11  73 W3        30.15R
WINONA         SUNNY     18  12  79 CALM      30.20S
AUSTIN         SUNNY     10   9  92 CALM      30.14F
ALBERT LEA     SUNNY     18  12  79 CALM      30.14S
DODGE CENTER   MOSUNNY   12  10  92 W6        30.13S WCI   3
PRESTON        SUNNY     15  11  82 W6        30.15S WCI   7
OWATONNA       SUNNY     12   9  85 CALM      30.16R
FARIBAULT      SUNNY     16  10  79 CALM      30.16R
$$

...ELSEWHERE IN MINNESOTA...


CITY           SKY/WX    TMP DP  RH WIND       PRES   REMARKS
MINNEAPOLIS    CLOUDY    15  10  80 CALM      30.18R
INTNL FALLS    SUNNY     -1  -9  68 W6        30.21R WCI -13
DULUTH         SUNNY      8  -4  58 N13       30.13R WCI  -8
RED WING       CLOUDY    16  10  79 W3        30.17R
REDWOOD FALLS  MOSUNNY   18  13  80 N6        30.18R WCI  10
MANKATO        SUNNY     12   7  79 NW3       30.17R
WORTHINGTON    SUNNY     18 -27  12 N7        30.13S WCI   8
FAIRMONT       SUNNY     19  10  68 N7        30.15R WCI  10
$$

...SOUTHWEST WISCONSIN...


CITY           SKY/WX    TMP DP  RH WIND       PRES   REMARKS
LA CROSSE      SUNNY     22  13  68 VRB3      30.19R
PRAIRIE DU CHI SUNNY     24  16  71 CALM      30.19F
BOSCOBEL       SUNNY     25  17  72 SW5       30.18F WCI  19
LONE ROCK      SUNNY     28  16  60 CALM      30.18S
PLATTEVILLE    SUNNY     25  20  82 CALM      30.18F
FORT MC COY    SUNNY     22  15  75 W3        30.18S
CAMP DOUGLAS   MOSUNNY   23  21  93 VRB1      30.15S
VIROQUA        FAIR      22  20  90 CALM      30.13F
WIS DELLS      SUNNY     25  17  72 W5        30.14F WCI  19
$$

...ELSEWHERE IN WISCONSIN...


CITY           SKY/WX    TMP DP  RH WIND       PRES   REMARKS
MILWAUKEE      MOSUNNY   30  16  56 W7        30.16S WCI  23
MADISON        MOSUNNY   25  17  72 W5        30.16S WCI  19
GREEN BAY      SUNNY     25  18  74 W9        30.13F WCI  15
EAU CLAIRE     CLOUDY    14   9  80 CALM      30.15S
BLACK RVR FLS  FAIR      19  13  77 CALM      30.16F
MEDFORD        LGT SNOW  13  10  88 W3        30.10R
WAUSAU         LGT SNOW  16  12  84 CALM      30.10S FOG
WIS RAPIDS     SUNNY     19  13  77 SW3       30.15S
MARSHFIELD     CLOUDY    14   9  80 W7        30.12R WCI   4
RICE LAKE      LGT SNOW  17  12  82 NW3       30.16R
$$

...NORTHEAST IOWA...


CITY           SKY/WX    TMP DP  RH WIND       PRES   REMARKS
DECORAH        SUNNY     23  18  80 VRB5      30.15S WCI  17
MASON CITY     SUNNY     17  11  77 W3        30.17R
CHARLES CITY   SUNNY     19  16  86 W7        30.17S WCI  10
OELWEIN        SUNNY     23  19  86 VRB5      30.17S WCI  17
$$

...ELSEWHERE IN IOWA...


CITY           SKY/WX    TMP DP  RH WIND       PRES   REMARKS
DES MOINES     SUNNY     26  20  77 SW3       30.18S
IOWA CITY      SUNNY     25  19  78 SW6       30.22F WCI  18
FORT DODGE     SUNNY     19  14  79 W3        30.16F
$$

...NORTHERN ILLINOIS...


CITY           SKY/WX    TMP DP  RH WIND       PRES   REMARKS
CHICAGO-OHARE  MOSUNNY   27  15  61 W9        30.18F WCI  18
CHICAGO-MIDWAY PTSUNNY   28  18  66 W7        30.19F WCI  21
MOLINE         SUNNY     28  16  60 W3        30.21F
ROCKFORD       MOSUNNY   26  17  68 SW5       30.21S WCI  20
PEORIA         PTSUNNY   29  20  69 W6        30.23F WCI  23
$$

NOTE: "FAIR" INDICATES FEW OR NO CLOUDS BELOW 12,000 FEET WITH NO
SIGNIFICANT WEATHER AND/OR OBSTRUCTIONS TO VISIBILITY. WIND
SPEEDS ARE IN MILES-PER-HOUR.



USA.gov is the U.S. government's official web portal to all federal, state and local government web resources and services.